CAPE
1 0 0 0 0 0 0 0 0 1 0 0 1 3 0 6 6 2 6 6 452 299 197 213 168 138 102 118 59 45 42 45
0 6 5 0 0 0 0 0 1 1 1 0 4 4 4 0 0 1 9 6 69 436 299 200 239 158 146 92 65 48 50 64
0 1 1 15 1 2 5 0 2 3 2 4 5 6 5 2 0 1 4 4 5 9 252 221 175 152 99 44 18 21 31 15
0 3 3 4 1 5 8 15 9 15 9 7 3 2 1 2 0 0 2 3 7 6 21 197 198 132 74 62 10 13 25 13
0 3 4 3 3 12 25 22 19 19 16 8 11 1 1 1 5 4 3 1 2 5 3 160 180 135 74 35 52 13 5 10
0 0 1 1 1 4 21 38 23 33 26 14 2 9 1 1 2 4 3 3 3 4 6 4 133 151 104 50 52 12 2 0
0 0 3 5 0 4 12 14 30 37 28 12 7 2 3 3 0 0 3 4 3 2 2 5 4 158 126 52 42 23 8 3
2 0 0 4 5 4 10 11 23 42 37 13 15 10 4 10 4 9 11 7 6 2 1 6 3 6 109 50 38 20 0 17
1 7 3 0 5 6 14 12 23 43 37 35 20 25 13 17 13 8 13 9 8 3 5 3 3 1 33 114 54 47 23 4
11 5 12 13 7 2 11 18 20 40 35 25 27 27 22 16 5 10 5 1 2 6 6 3 5 1 1 193 107 31 16 17
9 13 6 16 21 7 12 11 22 43 37 37 29 36 34 24 14 10 1 7 7 5 9 5 1 3 3 5 183 108 86 49
10 12 14 7 18 19 15 13 22 41 37 33 36 38 31 24 23 14 7 10 4 7 5 7 3 2 2 2 70 165 113 71
10 13 17 16 13 19 16 21 29 21 21 29 45 32 33 29 28 16 8 11 10 6 6 11 6 5 3 4 1 121 122 95
15 15 27 21 21 30 18 13 30 22 22 24 30 32 35 28 24 17 7 15 9 9 3 9 10 2 1 1 1 2 114 93
17 39 33 20 28 39 23 16 28 21 21 23 26 42 33 36 26 25 7 3 8 9 15 11 4 0 0 0 0 1 1 29
10 41 41 20 35 37 25 21 19 27 30 26 25 35 34 33 38 16 9 1 11 10 12 8 5 1 4 4 2 0 0 0
27 22 13 9 17 23 14 10 32 39 30 34 29 28 24 27 34 26 6 2 2 10 10 10 9 3 0 0 1 0 0 0
19 14 3 9 19 22 24 29 37 32 29 29 28 23 26 22 33 28 10 6 4 13 9 10 13 1 0 0 0 0 1 0
1 1 6 11 16 18 27 27 26 23 19 14 17 24 28 22 38 30 11 9 9 6 14 12 11 1 0 0 0 2 2 0
CIN
0 0 0 0 0 0 0 0 -1 -1 0 0 0 0 0 -1 -1 0 0 -29 -3 -11 -28 -7 -6 0 -4 0 0 -3 -33 -18
0 0 0 0 -2 0 0 0 -3 -1 -1 0 0 0 0 0 0 0 0 0 -74 0 -23 -14 0 0 0 -2 -1 -2 -13 -32
0 -1 -1 -1 -2 -2 -1 0 -2 -2 0 -2 0 0 0 0 0 -1 0 0 0 0 -7 -15 -34 -5 -3 -4 -20 -3 -10 -38
0 -1 -2 -1 -1 -3 -1 -1 -2 -2 -1 -1 0 0 0 0 0 0 -1 0 0 0 -5 -13 -19 -34 -30 -12 -31 -1 -11 -8
0 0 0 0 -1 -2 0 -2 -2 -1 -2 -2 -1 0 0 0 0 0 0 0 0 0 0 -26 -13 -34 -42 -33 -14 -44 -28 -14
0 0 0 0 0 -2 -1 0 -1 -1 -1 -2 -1 0 0 0 0 0 0 0 0 0 0 0 -27 -10 -35 -67 -36 -30 0 -1
0 0 -1 0 0 -2 -1 -3 0 0 -1 -2 -2 0 -1 0 0 0 0 0 0 0 0 0 0 -8 -22 -62 -53 -24 -21 -3
-1 0 0 0 -1 -2 -1 -1 -1 -1 0 -2 -2 -1 -1 -1 0 0 0 0 0 0 0 0 0 0 -22 -61 -45 -90 -4 -7
-1 -1 -1 0 -1 -2 -1 -1 -1 0 0 -1 -4 -3 -1 -1 -2 0 0 0 0 0 0 0 0 0 -17 -20 -34 -24 -19 -3
0 -2 -1 -1 -2 -3 -3 -1 0 -1 -1 -1 -2 -3 -3 -2 -1 -1 0 0 0 0 0 0 0 0 0 -4 -6 -32 -13 -15
-1 -1 -1 -1 -2 -1 -5 -4 -1 0 -2 -1 -1 0 -1 -3 -2 -1 0 0 0 0 0 0 0 0 0 0 -1 -2 -1 -21
0 0 0 0 -2 -2 -5 -2 -1 0 -1 -2 -1 -1 -1 -5 -3 -1 0 0 0 0 0 0 0 0 0 0 -30 0 -1 -5
-1 0 0 0 0 -1 -1 -3 -1 -2 -2 -1 -1 -1 -2 0 -1 -1 -2 0 0 0 0 0 0 0 0 0 0 -9 -3 -11
0 -3 0 0 0 0 0 -2 -1 -1 -1 -1 -1 -2 -1 -1 0 -2 -4 0 0 0 0 0 0 0 0 0 0 0 0 -16
-1 0 0 0 0 0 0 -1 -1 0 -1 0 -1 -1 -2 -1 -1 -1 -1 -1 0 0 0 0 0 0 0 0 0 0 0 0
-1 0 0 -1 0 0 0 -1 -1 0 0 0 -1 -1 0 0 -1 0 -1 0 0 0 0 0 0 0 0 0 0 0 0 0
-1 0 0 0 0 0 0 -1 0 0 0 0 0 0 0 0 0 0 0 0 0 0 0 0 0 0 0 0 0 0 0 0
0 0 -1 0 0 0 0 0 0 0 0 0 0 0 0 0 0 0 0 0 0 -1 0 0 0 0 0 0 0 0 0 0
-1 -1 -1 -1 0 0 -1 0 0 0 0 0 0 0 0 0 0 0 0 0 0 0 0 -1 0 0 0 0 0 0 0 0
Wind_Speed
17 17 17 17 16 16 16 13 14 13 8 10 10 10 11 9 9 10 16 13 7 6 5 6 7 7 9 7 5 6 3 5
19 19 15 16 15 15 16 17 16 12 10 11 11 12 11 11 9 13 13 14 12 7 6 7 6 7 8 8 4 6 3 2
17 17 18 15 15 15 15 16 16 13 11 9 10 10 10 10 10 11 11 14 13 11 6 7 8 6 8 9 6 9 2 4
16 16 16 17 17 16 15 15 15 13 15 11 12 10 10 9 11 10 12 14 13 13 10 8 8 8 7 10 10 10 7 6
16 16 16 15 16 16 16 15 15 13 14 11 14 12 12 10 9 10 11 13 13 14 14 9 9 7 8 9 7 9 9 9
15 16 16 16 15 15 15 15 15 14 13 13 11 11 11 9 9 14 13 10 12 13 15 15 10 7 9 10 10 9 8 6
13 14 15 14 14 14 14 16 16 14 13 14 14 15 14 11 13 11 11 10 9 11 14 12 13 9 10 9 11 13 7 8
13 14 14 14 15 15 14 16 15 14 14 14 12 12 14 12 13 11 12 10 10 11 13 12 9 11 8 8 9 9 11 9
15 14 12 13 14 14 14 16 15 13 13 14 12 11 7 8 10 10 9 8 9 13 11 11 12 12 9 9 9 9 10 9
15 16 14 13 12 14 14 15 15 12 12 12 12 12 10 9 13 10 9 12 11 11 12 11 11 12 11 9 7 9 10 11
15 13 14 13 13 11 11 14 15 13 11 11 11 12 11 10 9 11 13 12 13 13 12 10 11 11 10 11 8 8 10 9
14 14 13 13 13 12 10 12 14 12 13 11 13 12 13 11 10 11 12 12 13 13 12 10 10 10 11 10 9 10 11 9
14 14 15 13 13 13 11 10 11 11 12 13 11 13 12 12 11 11 12 12 12 12 11 10 10 9 10 11 13 10 10 10
14 14 13 12 12 12 12 11 11 11 12 13 12 11 12 12 12 11 12 12 12 12 11 10 9 10 11 11 11 11 7 8
13 13 11 10 12 11 12 10 11 11 11 11 12 10 12 11 12 11 11 12 12 12 10 10 9 11 13 13 13 12 11 7
13 13 10 10 11 10 11 10 10 11 11 10 11 11 11 12 11 12 11 12 11 10 10 9 9 10 10 13 12 10 9 9
14 12 12 12 12 11 11 10 10 11 11 11 10 12 10 11 11 11 12 12 11 8 9 9 8 9 17 18 14 10 7 7
11 11 11 11 10 10 9 10 10 11 10 12 12 12 10 10 11 11 12 12 11 7 9 9 7 12 22 24 24 7 6 5
9 9 10 9 8 9 9 10 11 10 10 11 12 12 11 9 9 11 10 10 10 10 8 8 8 11 23 26 25 12 9 9
Wind_Direction
7 10 360 354 13 8 359 7 357 352 10 353 352 347 342 353 355 356 344 335 177 177 183 175 177 179 196 201 194 151 124 160
351 357 7 354 10 11 1 2 358 359 4 4 353 347 344 338 358 350 347 340 321 181 178 173 181 185 188 183 163 150 130 149
1 356 352 355 9 7 4 3 354 5 0 13 352 341 344 329 346 344 354 337 336 343 182 185 184 182 176 172 197 146 145 173
0 3 358 352 1 4 3 2 355 8 4 1 352 349 349 345 344 343 349 346 338 329 311 187 191 183 183 197 180 180 174 184
358 357 357 356 2 359 359 1 354 9 3 7 1 352 347 344 338 337 340 345 340 334 338 208 190 194 194 194 181 190 179 186
358 355 354 356 3 359 353 357 354 1 3 3 359 357 345 340 340 339 339 341 342 348 348 341 193 197 201 204 193 181 196 182
357 356 352 356 0 356 353 355 348 357 1 358 358 359 351 345 346 343 339 339 343 348 347 341 339 199 208 200 204 200 173 186
349 355 353 355 357 355 352 349 343 354 360 354 353 2 355 350 348 342 338 338 342 341 344 333 335 325 198 196 200 194 207 207
356 357 356 352 353 354 353 344 339 356 359 351 350 357 358 352 347 343 336 333 332 329 330 333 330 321 302 200 202 203 203 192
353 351 358 349 349 351 353 341 339 349 1 352 349 346 357 354 350 347 343 332 329 331 325 322 329 326 313 221 206 197 206 210
344 349 347 346 343 346 351 339 337 342 359 351 344 347 347 351 352 350 347 333 328 328 324 328 320 323 313 314 212 209 209 210
339 344 347 338 340 338 350 340 335 350 348 354 343 342 344 351 354 351 351 333 332 327 325 326 328 325 325 320 253 212 218 204
331 338 341 338 337 335 342 339 336 348 343 339 344 338 348 353 354 350 351 336 331 328 326 327 328 325 323 352 342 218 205 202
340 336 327 333 331 330 334 339 348 346 338 338 338 342 342 352 351 349 353 339 336 332 331 333 340 9 5 354 327 336 235 207
332 316 329 332 324 332 333 348 351 344 335 335 332 343 344 349 353 353 352 341 340 343 347 348 41 23 6 353 341 339 329 280
314 321 329 327 330 335 343 355 346 340 332 336 331 342 347 347 356 352 352 344 342 353 2 5 30 25 6 352 336 325 308 318
299 330 336 339 341 341 354 351 343 344 343 339 343 337 348 350 354 352 352 344 343 6 12 11 36 17 353 352 340 306 314 316
334 332 345 343 342 355 357 358 358 355 352 346 343 341 342 352 356 350 358 347 347 13 16 17 21 21 4 355 347 335 325 305
335 345 348 340 352 6 4 8 5 353 349 343 339 335 336 352 358 344 5 351 359 0 13 21 16 37 13 2 349 357 359 2